CW5019 Weather Reports


time (UTC)temp
C
wind
direction
speed
KPH
gust
KPH
rain 1hr
cm
rain 24hr
cm
rain mn
cm
humidity
%
barometer
mb
20260510000403 28 320 0.0 0.0 0.00 0.00 0.00 75 1006.8
20260509235859 29 320 0.0 0.0 0.00 0.00 0.00 74 1006.9
20260509235356 29 320 0.0 0.0 0.00 0.00 0.00 73 1006.8
20260509234852 29 320 0.0 0.0 0.00 0.00 0.00 74 1006.9
20260509234349 30 320 0.0 0.0 0.00 0.00 0.00 74 1006.9
20260509233848 30 320 0.0 0.0 0.00 0.00 0.00 74 1006.9
20260509233345 30 320 0.0 0.0 0.00 0.00 0.00 74 1006.9
20260509232841 30 320 0.0 0.0 0.00 0.00 0.00 72 1007.0
20260509232339 30 320 0.0 0.0 0.00 0.00 0.00 71 1006.9
20260509231835 30 320 0.0 0.0 0.00 0.00 0.00 70 1006.9
20260509231332 30 320 0.0 0.0 0.00 0.00 0.00 71 1006.9
20260509230829 30 320 0.0 0.0 0.00 0.00 0.00 71 1007.0
20260509230326 30 320 0.0 0.0 0.00 0.00 0.00 70 1006.8
20260509225820 30 320 0.0 0.0 0.00 0.00 0.00 70 1006.7
20260509225318 30 320 0.0 0.0 0.00 0.00 0.00 70 1006.9
20260509224814 30 320 0.0 0.0 0.00 0.00 0.00 70 1006.8
20260509224310 30 320 0.0 0.0 0.00 0.00 0.00 69 1006.7
20260509223807 30 320 0.0 0.0 0.00 0.00 0.00 68 1006.6
20260509223304 31 320 0.0 0.0 0.00 0.00 0.00 66 1006.6
20260509222801 32 320 0.0 0.0 0.00 0.00 0.00 63 1006.4
20260509222256 33 321 0.0 0.0 0.00 0.00 0.00 61 1006.5
20260509221752 33 320 0.0 0.0 0.00 0.00 0.00 59 1006.5
20260509221249 33 296 0.0 0.0 0.00 0.00 0.00 59 1006.4
20260509220744 32 328 0.0 0.0 0.00 0.00 0.00 62 1006.5
20260509220241 32 352 0.0 0.0 0.00 0.00 0.00 64 1006.7
20260509215736 33 347 0.0 0.0 0.00 0.00 0.00 62 1006.5
20260509215234 33 341 0.0 0.0 0.00 0.00 0.00 61 1006.5
20260509214731 33 336 0.0 0.0 0.00 0.00 0.00 62 1006.4
20260509214228 33 325 1.6 1.6 0.00 0.00 0.00 58 1006.6
20260509213724 33 359 0.0 1.6 0.00 0.00 0.00 59 1006.5
20260509213220 33 352 0.0 0.0 0.00 0.00 0.00 59 1006.5
20260509212718 33 334 0.0 0.0 0.00 0.00 0.00 58 1006.6
20260509212215 33 328 0.0 0.0 0.00 0.00 0.00 59 1006.7
20260509211711 33 7 0.0 0.0 0.00 0.00 0.00 61 1006.6
20260509211208 33 349 0.0 0.0 0.00 0.00 0.00 58 1006.7
20260509210704 32 330 0.0 0.0 0.00 0.00 0.00 61 1006.6
20260509210202 32 93 0.0 0.0 0.00 0.00 0.00 62 1006.9
20260509205701 32 335 0.0 0.0 0.00 0.00 0.00 61 1007.0
20260509205200 32 310 0.0 0.0 0.00 0.00 0.00 64 1007.0
20260509204657 32 355 0.0 0.0 0.00 0.00 0.00 64 1007.1
20260509204153 32 347 0.0 0.0 0.00 0.00 0.00 65 1007.1
20260509203649 32 29 0.0 0.0 0.00 0.00 0.00 65 1007.2
20260509203148 33 355 0.0 1.6 0.00 0.00 0.00 62 1007.3
20260509202643 32 344 0.0 0.0 0.00 0.00 0.00 64 1007.4
20260509202138 32 353 1.6 1.6 0.00 0.00 0.00 65 1007.4
20260509201633 32 346 0.0 0.0 0.00 0.00 0.00 65 1007.3
20260509201131 32 356 0.0 0.0 0.00 0.00 0.00 66 1007.4
20260509200627 32 35 0.0 0.0 0.00 0.00 0.00 66 1007.3
20260509200122 32 323 1.6 1.6 0.00 0.00 0.00 66 1007.6
20260509195618 31 321 0.0 1.6 0.00 0.00 0.00 65 1007.5
20260509195113 31 336 0.0 0.0 0.00 0.00 0.00 67 1007.9
20260509194612 31 59 1.6 1.6 0.00 0.00 0.00 67 1007.8
20260509194110 31 351 0.0 1.6 0.00 0.00 0.00 69 1007.9
20260509193606 30 1 1.6 1.6 0.00 0.00 0.00 69 1007.6
20260509193102 31 149 3.2 3.2 0.00 0.00 0.00 70 1007.8
20260509192559 31 51 0.0 0.0 0.00 0.00 0.00 70 1007.8
20260509192054 31 322 1.6 3.2 0.00 0.00 0.00 67 1007.8
20260509191554 31 349 0.0 1.6 0.00 0.00 0.00 68 1007.9
20260509191050 30 347 0.0 1.6 0.00 0.00 0.00 71 1008.2
20260509190547 30 3 0.0 0.0 0.00 0.00 0.00 74 1008.4
20260509190045 30 24 0.0 1.6 0.00 0.00 0.00 73 1008.3
20260509185543 30 50 0.0 0.0 0.00 0.00 0.00 75 1008.4
20260509185038 30 125 0.0 0.0 0.00 0.00 0.00 75 1008.5
20260509184537 30 319 1.6 3.2 0.00 0.00 0.00 72 1008.6
20260509184033 30 323 1.6 3.2 0.00 0.00 0.00 71 1008.5
20260509183528 30 155 1.6 1.6 0.00 0.00 0.00 74 1008.7
20260509183025 30 14 0.0 0.0 0.00 0.00 0.00 74 1008.7
20260509182521 30 331 0.0 0.0 0.00 0.00 0.00 74 1008.6
20260509182018 30 300 0.0 1.6 0.00 0.00 0.00 74 1008.8
20260509181516 29 335 1.6 1.6 0.00 0.00 0.00 76 1009.0
20260509181014 28 335 0.0 0.0 0.00 0.00 0.00 77 1009.1
20260509180508 28 41 0.0 0.0 0.00 0.00 0.00 78 1009.3
20260509180007 28 144 1.6 1.6 0.00 0.00 0.00 77 1009.2
20260509175502 28 15 0.0 0.0 0.00 0.00 0.00 77 1009.3
20260509174959 28 269 0.0 0.0 0.00 0.00 0.00 77 1009.4
20260509174455 28 349 0.0 0.0 0.00 0.00 0.00 76 1009.4
20260509173950 28 328 0.0 0.0 0.00 0.00 0.00 78 1009.4
20260509173450 28 11 0.0 0.0 0.00 0.00 0.00 79 1009.6
20260509172947 28 13 0.0 1.6 0.00 0.00 0.00 78 1009.4
20260509172444 28 330 0.0 0.0 0.00 0.00 0.00 78 1009.4
20260509171940 28 290 0.0 0.0 0.00 0.00 0.00 79 1009.3
20260509171436 28 288 0.0 0.0 0.00 0.00 0.00 80 1009.5
20260509170933 28 288 0.0 0.0 0.00 0.00 0.00 80 1009.2
20260509170429 27 298 0.0 0.0 0.00 0.00 0.00 81 1009.3
20260509165925 27 298 0.0 0.0 0.00 0.00 0.00 82 1009.3
20260509165424 27 298 0.0 1.6 0.00 0.00 0.00 81 1009.6
20260509164920 27 298 0.0 0.0 0.00 0.00 0.00 83 1009.3
20260509164416 26 297 0.0 1.6 0.00 0.00 0.00 84 1009.5
20260509163912 26 324 0.0 0.0 0.00 0.00 0.00 83 1009.3
20260509163410 26 339 1.6 1.6 0.00 0.00 0.00 85 1009.2
20260509162909 26 1 0.0 0.0 0.00 0.00 0.00 87 1008.9
20260509162408 26 13 0.0 0.0 0.00 0.00 0.00 89 1009.2
20260509161903 25 342 1.6 3.2 0.00 0.00 0.00 89 1009.3
20260509161400 25 347 0.0 0.0 0.00 0.00 0.00 90 1009.4
20260509160855 25 356 0.0 0.0 0.00 0.00 0.00 90 1009.5
20260509160351 25 356 0.0 0.0 0.00 0.00 0.00 91 1009.4
20260509155846 25 355 0.0 0.0 0.00 0.00 0.00 91 1009.5
20260509155343 25 346 0.0 0.0 0.00 0.00 0.00 90 1009.7
20260509154840 25 342 0.0 0.0 0.00 0.00 0.00 91 1009.9
20260509154337 25 342 0.0 0.0 0.00 0.00 0.00 91 1009.9
20260509153833 25 352 0.0 0.0 0.00 0.00 0.00 92 1009.8
20260509153330 25 0 0.0 0.0 0.00 0.00 0.00 92 1009.8
20260509152827 25 351 0.0 0.0 0.00 0.00 0.00 92 1009.6
20260509152323 25 351 0.0 0.0 0.00 0.00 0.00 93 1009.9
20260509151821 24 347 0.0 0.0 0.00 0.00 0.00 94 1009.7
20260509151316 24 339 0.0 0.0 0.00 0.00 0.00 95 1009.8
20260509150815 24 2 0.0 0.0 0.00 0.00 0.00 95 1009.6
20260509150312 24 339 0.0 0.0 0.00 0.00 0.00 95 1009.9
20260509145809 23 341 1.6 1.6 0.00 0.00 0.00 95 1009.5
20260509145309 23 342 0.0 0.0 0.00 0.00 0.00 95 1009.4
20260509144806 23 1 0.0 0.0 0.00 0.00 0.00 95 1009.5
20260509144303 23 1 0.0 0.0 0.00 0.00 0.00 95 1009.4
20260509143800 23 1 0.0 0.0 0.00 0.00 0.00 95 1009.3
20260509143258 23 1 0.0 0.0 0.00 0.00 0.00 95 1009.4
20260509142753 23 1 0.0 0.0 0.00 0.00 0.00 95 1009.3
20260509142249 23 0 0.0 0.0 0.00 0.00 0.00 95 1009.2
20260509141745 23 0 0.0 0.0 0.00 0.00 0.00 95 1008.7
20260509141243 23 0 0.0 0.0 0.00 0.00 0.00 95 1009.0
20260509140739 23 0 0.0 0.0 0.00 0.00 0.00 95 1009.0
20260509140236 23 353 0.0 0.0 0.00 0.00 0.00 95 1009.1
20260509135734 23 353 0.0 0.0 0.00 0.00 0.00 95 1009.0
20260509135232 23 353 0.0 0.0 0.00 0.00 0.00 95 1008.9
20260509134728 23 351 0.0 0.0 0.00 0.00 0.00 95 1009.2
20260509134226 23 351 0.0 0.0 0.00 0.00 0.00 95 1009.3
20260509133723 23 333 0.0 0.0 0.00 0.00 0.00 95 1009.4
20260509133219 23 357 0.0 0.0 0.00 0.00 0.00 95 1009.5
20260509132718 23 357 0.0 0.0 0.00 0.00 0.00 95 1009.6
20260509132216 23 339 0.0 0.0 0.00 0.00 0.00 95 1009.5
20260509131713 23 341 0.0 0.0 0.00 0.00 0.00 95 1009.9
20260509131209 23 341 0.0 0.0 0.00 0.00 0.00 95 1009.6
20260509130705 23 341 0.0 0.0 0.00 0.00 0.00 95 1009.4
20260509130201 22 341 0.0 0.0 0.00 0.00 0.00 95 1009.5
20260509125658 22 341 0.0 0.0 0.00 0.00 0.00 95 1009.4
20260509125155 22 341 0.0 0.0 0.00 0.00 0.00 95 1009.2
20260509124651 22 341 0.0 0.0 0.00 0.00 0.00 95 1009.5
20260509124148 22 341 0.0 0.0 0.00 0.00 0.00 95 1009.6
20260509123646 22 341 0.0 0.0 0.00 0.00 0.00 95 1009.4
20260509123143 22 341 0.0 0.0 0.00 0.00 0.00 95 1009.6
20260509122638 22 341 0.0 0.0 0.00 0.00 0.00 95 1009.5
20260509122136 22 341 0.0 0.0 0.00 0.00 0.00 95 1009.2
20260509121632 22 341 0.0 0.0 0.00 0.00 0.00 95 1009.3
20260509121130 22 341 0.0 0.0 0.00 0.00 0.00 95 1009.3
20260509120628 22 341 0.0 0.0 0.00 0.00 0.00 95 1009.2
20260509120126 22 341 0.0 0.0 0.00 0.00 0.00 95 1009.3
20260509115623 22 341 0.0 0.0 0.00 0.00 0.00 95 1009.0
20260509115121 22 341 0.0 0.0 0.00 0.00 0.00 95 1008.9
20260509114618 22 341 0.0 0.0 0.00 0.00 0.00 95 1009.0
20260509114117 22 342 0.0 0.0 0.00 0.00 0.00 95 1008.7
20260509113615 22 342 0.0 0.0 0.00 0.00 0.00 95 1008.9
20260509113112 22 342 0.0 0.0 0.00 0.00 0.00 95 1008.9
20260509112609 22 342 0.0 0.0 0.00 0.00 0.00 95 1008.8
20260509112106 22 70 0.0 0.0 0.00 0.00 0.00 95 1008.8
20260509111603 22 346 0.0 0.0 0.00 0.00 0.00 95 1008.7
20260509111100 22 2 0.0 0.0 0.00 0.00 0.00 95 1008.7
20260509110557 22 354 0.0 0.0 0.00 0.00 0.00 95 1008.8
20260509110054 22 353 0.0 0.0 0.00 0.00 0.00 95 1009.0
20260509105552 22 353 0.0 0.0 0.00 0.00 0.00 95 1009.0
20260509105049 22 354 0.0 0.0 0.00 0.00 0.00 95 1009.1
20260509104546 22 339 0.0 0.0 0.00 0.00 0.00 95 1009.3
20260509104043 22 339 0.0 0.0 0.00 0.00 0.00 95 1009.5
20260509103541 22 339 0.0 0.0 0.00 0.00 0.00 95 1009.1
20260509103039 22 339 0.0 0.0 0.00 0.00 0.00 95 1009.0
20260509102536 22 339 0.0 0.0 0.00 0.00 0.00 95 1009.2
20260509102032 22 339 0.0 0.0 0.00 0.00 0.00 95 1009.0
20260509101529 22 329 0.0 0.0 0.00 0.00 0.00 95 1008.9
20260509101026 22 338 0.0 0.0 0.00 0.00 0.00 95 1008.5
20260509100523 22 338 0.0 0.0 0.00 0.00 0.00 95 1008.4
20260509100020 22 338 0.0 0.0 0.00 0.00 0.00 95 1008.4
20260509095517 22 338 0.0 0.0 0.00 0.00 0.00 95 1008.3
20260509095014 22 338 0.0 0.0 0.00 0.00 0.00 95 1008.3
20260509094510 22 338 0.0 0.0 0.00 0.00 0.00 95 1008.3
20260509094008 22 338 0.0 0.0 0.00 0.00 0.00 95 1008.3
20260509093506 22 338 0.0 0.0 0.00 0.00 0.00 95 1008.4
20260509093003 22 338 0.0 0.0 0.00 0.00 0.00 95 1008.6
20260509092501 22 338 0.0 0.0 0.00 0.00 0.00 95 1008.8
20260509091959 22 338 0.0 0.0 0.00 0.00 0.00 95 1008.7
20260509091456 22 338 0.0 0.0 0.00 0.00 0.00 95 1008.6
20260509090953 22 345 0.0 0.0 0.00 0.00 0.00 95 1008.6
20260509090450 22 345 0.0 0.0 0.00 0.00 0.00 95 1008.8
20260509085942 22 345 0.0 0.0 0.00 0.00 0.00 95 1008.8
20260509085438 22 345 0.0 0.0 0.00 0.00 0.00 95 1008.9
20260509084934 22 345 0.0 0.0 0.00 0.00 0.00 95 1008.9
20260509084431 22 345 0.0 0.0 0.00 0.00 0.00 95 1008.9
20260509083929 22 345 0.0 0.0 0.00 0.00 0.00 95 1008.9
20260509083426 22 345 0.0 0.0 0.00 0.00 0.00 95 1008.8
20260509082923 22 345 0.0 0.0 0.00 0.00 0.00 95 1009.0
20260509082421 22 345 0.0 0.0 0.00 0.00 0.00 95 1009.0
20260509081917 22 345 0.0 0.0 0.00 0.00 0.00 95 1009.1
20260509081414 22 345 0.0 0.0 0.00 0.00 0.00 95 1009.1
20260509080911 22 345 0.0 0.0 0.00 0.00 0.00 95 1009.0
20260509080409 22 346 0.0 0.0 0.00 0.00 0.00 95 1008.9
20260509075908 22 346 0.0 0.0 0.00 0.00 0.00 95 1008.7
20260509075404 22 262 0.0 0.0 0.00 0.00 0.00 95 1008.9
20260509074901 22 3 0.0 0.0 0.00 0.00 0.00 95 1008.8
20260509074359 22 4 0.0 0.0 0.00 0.00 0.00 95 1008.9
20260509073855 22 4 0.0 0.0 0.00 0.00 0.00 95 1008.6
20260509073352 22 4 0.0 0.0 0.00 0.00 0.00 95 1008.7
20260509072848 22 4 0.0 0.0 0.00 0.00 0.00 95 1008.6
20260509072345 22 353 0.0 0.0 0.00 0.00 0.00 95 1008.9
20260509071841 22 353 0.0 0.0 0.00 0.00 0.00 95 1008.8
20260509071339 22 353 0.0 0.0 0.00 0.00 0.00 95 1008.8
20260509070836 22 353 0.0 0.0 0.00 0.00 0.00 95 1008.9
20260509070332 22 353 0.0 0.0 0.00 0.00 0.00 95 1009.0
20260509065829 22 353 0.0 0.0 0.00 0.00 0.00 95 1008.8
20260509065325 22 353 0.0 0.0 0.00 0.00 0.00 95 1008.8
20260509064821 22 353 0.0 0.0 0.00 0.00 0.00 95 1008.9
20260509064319 22 353 0.0 0.0 0.00 0.00 0.00 95 1008.8
20260509063816 22 352 0.0 0.0 0.00 0.00 0.00 95 1008.9
20260509063312 22 352 0.0 0.0 0.00 0.00 0.00 95 1009.0
20260509062810 22 352 0.0 0.0 0.00 0.00 0.00 95 1008.8
20260509062307 22 346 0.0 0.0 0.00 0.00 0.00 95 1009.0
20260509061803 22 346 0.0 0.0 0.00 0.00 0.00 95 1009.2
20260509061301 22 345 0.0 0.0 0.00 0.00 0.00 95 1009.2
20260509060758 22 345 0.0 0.0 0.00 0.00 0.00 95 1009.3
20260509060255 22 345 0.0 0.0 0.00 0.00 0.00 95 1009.3
20260509055751 21 345 0.0 0.0 0.00 0.00 0.00 95 1009.2
20260509055247 22 345 0.0 0.0 0.00 0.00 0.00 95 1009.4
20260509054743 21 342 0.0 0.0 0.00 0.00 0.00 95 1009.3
20260509054240 21 342 0.0 0.0 0.00 0.00 0.00 95 1009.4
20260509053739 22 351 0.0 0.0 0.00 0.00 0.00 95 1009.3
20260509053235 21 351 0.0 0.0 0.00 0.00 0.00 95 1009.4
20260509052733 21 351 0.0 0.0 0.00 0.00 0.00 95 1009.3
20260509052231 21 351 0.0 0.0 0.00 0.00 0.00 95 1009.4
20260509051728 21 352 0.0 0.0 0.00 0.00 0.00 95 1009.5
20260509051226 21 345 0.0 0.0 0.00 0.00 0.00 95 1009.3
20260509050722 21 18 0.0 0.0 0.00 0.00 0.00 95 1009.3
20260509050219 21 352 0.0 0.0 0.00 0.00 0.00 95 1009.3
20260509045716 21 3 0.0 0.0 0.00 0.00 0.00 95 1009.4
20260509045213 21 356 0.0 0.0 0.00 0.00 0.00 95 1009.4
20260509044710 21 356 0.0 0.0 0.00 0.00 0.00 95 1009.4
20260509044208 21 343 0.0 0.0 0.00 0.00 0.00 95 1009.4
20260509043704 21 342 0.0 0.0 0.00 0.00 0.00 95 1009.2
20260509043200 21 262 0.0 0.0 0.00 0.00 0.00 95 1009.1
20260509042657 21 359 0.0 0.0 0.00 0.00 0.00 95 1009.1
20260509042153 21 352 0.0 0.0 0.00 0.00 0.00 95 1009.3
20260509041649 21 352 0.0 0.0 0.00 0.00 0.00 95 1009.4
20260509041147 21 358 0.0 0.0 0.00 0.00 0.00 95 1009.4
20260509040645 21 354 0.0 0.0 0.00 0.00 0.00 95 1009.5
20260509040142 21 356 0.0 0.0 0.00 0.00 0.00 95 1009.3
20260509035639 21 358 0.0 0.0 0.00 0.00 0.00 95 1009.2
20260509035135 21 0 0.0 0.0 0.00 0.00 0.00 95 1009.1
20260509034633 21 359 0.0 0.0 0.00 0.00 0.00 95 1009.2
20260509034130 21 352 0.0 0.0 0.00 0.00 0.00 95 1009.4
20260509033627 21 353 0.0 0.0 0.00 0.00 0.00 95 1009.1
20260509033124 21 1 0.0 0.0 0.00 0.00 0.00 95 1009.1
20260509032621 21 350 0.0 0.0 0.00 0.00 0.00 95 1009.1
20260509032118 21 352 0.0 0.0 0.00 0.00 0.00 95 1009.1
20260509031616 21 338 0.0 0.0 0.00 0.00 0.00 95 1009.3
20260509031113 21 39 0.0 0.0 0.00 0.00 0.00 95 1009.0
20260509030611 22 343 0.0 0.0 0.00 0.00 0.00 95 1009.0
20260509030108 22 352 0.0 0.0 0.00 0.00 0.00 95 1009.3
20260509025604 22 352 0.0 0.0 0.00 0.00 0.00 95 1009.0
20260509025059 21 341 0.0 0.0 0.00 0.00 0.00 95 1009.0
20260509024555 22 342 0.0 0.0 0.00 0.00 0.00 95 1008.6
20260509024052 22 350 0.0 0.0 0.00 0.00 0.00 95 1008.6
20260509023550 22 338 0.0 0.0 0.00 0.00 0.00 95 1008.8
20260509023046 22 25 0.0 1.6 0.00 0.00 0.00 95 1008.7
20260509022543 22 332 1.6 1.6 0.00 0.00 0.00 95 1008.7
20260509022041 22 339 0.0 0.0 0.00 0.00 0.00 95 1008.6
20260509021537 22 345 0.0 0.0 0.00 0.00 0.00 95 1008.6
20260509021034 22 350 0.0 0.0 0.00 0.00 0.00 95 1008.5
20260509020533 22 7 0.0 0.0 0.00 0.00 0.00 95 1008.6
20260509020029 22 7 0.0 0.0 0.00 0.00 0.00 95 1008.7
20260509015528 22 7 0.0 1.6 0.00 0.00 0.00 95 1008.6
20260509015025 22 7 0.0 0.0 0.00 0.00 0.00 95 1008.5
20260509014522 22 7 0.0 0.0 0.00 0.00 0.00 95 1008.5
20260509014019 22 7 0.0 0.0 0.00 0.00 0.00 95 1008.6
20260509013516 22 7 0.0 0.0 0.00 0.00 0.00 95 1008.6
20260509013011 22 17 0.0 0.0 0.00 0.00 0.00 94 1008.7
20260509012508 22 354 0.0 0.0 0.00 0.00 0.00 94 1008.4
20260509012004 22 358 0.0 0.0 0.00 0.00 0.00 93 1008.3
20260509011502 22 6 1.6 1.6 0.00 0.00 0.00 93 1008.4
20260509010959 22 359 0.0 0.0 0.00 0.00 0.00 92 1008.3
20260509010457 22 341 0.0 1.6 0.00 0.00 0.00 92 1008.3
20260509005953 23 16 1.6 3.2 0.00 0.00 0.00 92 1008.2
20260509005452 23 343 0.0 1.6 0.00 0.00 0.00 92 1008.0
20260509004951 23 336 0.0 1.6 0.00 0.00 0.00 92 1008.1
20260509004448 23 349 0.0 0.0 0.00 0.00 0.00 91 1007.8
20260509003946 23 338 0.0 0.0 0.00 0.00 0.00 91 1008.0
20260509003444 23 343 0.0 1.6 0.00 0.00 0.00 91 1007.8
20260509002941 23 325 1.6 1.6 0.00 0.00 0.00 91 1008.1
20260509002438 23 334 1.6 3.2 0.00 0.00 0.00 90 1008.2
20260509001936 23 7 0.0 0.0 0.00 0.00 0.00 90 1008.3
20260509001432 23 0 0.0 0.0 0.00 0.00 0.00 90 1008.3
20260509000929 23 1 0.0 0.0 0.00 0.00 0.00 90 1008.5